This is the latest recevied weather packets stored in our database for station/object OE3CJB-13. If no packets are shown the sender has not sent any weather packets the latest 10 day(s).
| Time | Temp. | Humidity | Pressure | Rain* | Wind** | Luminosity | Snow |
|---|---|---|---|---|---|---|---|
| 1788580849 | 21.67° C | 45% | 1176.9 hPa | 0 mm | - | - | - |
| 1788579934 | 21.67° C | 45% | 1177.4 hPa | 0 mm | - | - | - |
| 1788579022 | 22.22° C | 45% | 1177.4 hPa | 0 mm | - | - | - |
| 1788578165 | 22.78° C | 51% | 1177.4 hPa | 0 mm | - | - | - |
| 1788577248 | 22.78° C | 49% | 1176.2 hPa | 0 mm | - | - | - |
| 1788576335 | 23.33° C | 46% | 1176 hPa | 0 mm | - | - | - |
| 1788575423 | 23.33° C | 40% | 1175.9 hPa | 0 mm | - | - | - |
| 1788574565 | 23.33° C | 39% | 1175.6 hPa | 0 mm | - | - | - |
| 1788573648 | 23.33° C | 40% | 1177.1 hPa | 0 mm | - | - | - |
| 1788572765 | 22.78° C | 40% | 1177.8 hPa | 0 mm | - | - | - |
| 1788571822 | 22.78° C | 41% | 1176.9 hPa | 0 mm | - | - | - |
| 1788570968 | 22.78° C | 41% | 1178.4 hPa | 0 mm | - | - | - |
| 1788570050 | 22.78° C | 41% | 1177.5 hPa | 0 mm | - | - | - |
| 1788569135 | 22.22° C | 43% | 1178.1 hPa | 0 mm | - | - | - |
| 1788568223 | 21.67° C | 45% | 1178.8 hPa | 0 mm | - | - | - |
| 1788567366 | 21.67° C | 46% | 1178.8 hPa | 0 mm | - | - | - |
| 1788566449 | 21.11° C | 48% | 1178.7 hPa | 0 mm | - | - | - |
| 1788565536 | 20.56° C | 51% | 1180.9 hPa | 0 mm | - | - | - |
| 1788564622 | 19.44° C | 55% | 1180.9 hPa | 0 mm | - | - | - |
| 1788563770 | 19.44° C | 57% | 1182.2 hPa | 0 mm | - | - | - |
| 1788562867 | 19.44° C | 58% | 1183.8 hPa | 0 mm | - | - | - |
| 1788561934 | 19.44° C | 58% | 1184.5 hPa | 0 mm | - | - | - |
| 1788561023 | 19.44° C | 59% | 1186.7 hPa | 0 mm | - | - | - |
| 1788560165 | 19.44° C | 60% | 1187.5 hPa | 0 mm | - | - | - |
| 1788559267 | 19.44° C | 59% | 1187.5 hPa | 0 mm | - | - | - |
* Rain latest hour (hover to see other rain measurements)
** Current wind speed in m/s (hover to see current wind gust speed)